This demonstration page uses our WeatherBlox Daily Observations layout. Learn more.

Left ArrowRight Arrow

Hourly Observations for July 16, 2015

Temp ( °F °C ) Dew Point ( °F °C ) Humidity (%) Winds ( mph kmh ) Pressure ( in mb ) Visibility ( mi km ) Precip ( " mm )
12:53 am 00:53 Clear 79 26.1 57 13.9 47 47 Calm 29.82 1010 10 16 0.00 0.00
1:53 am 01:53 Clear 79 26.1 56 13.3 45 45 N 3 6 29.83 1010 10 16 0.00 0.00
2:53 am 02:53 Clear 77 25 56 13.3 48 48 NNW 5 7 29.83 1010 10 16 0.00 0.00
3:53 am 03:53 Clear 76 24.4 55 12.8 48 48 NNW 5 7 29.83 1010 10 16 0.00 0.00
4:53 am 04:53 Clear 73 22.8 55 12.8 53 53 NNW 3 6 29.84 1010 10 16 0.00 0.00
5:53 am 05:53 Sunny 73 22.8 55 12.8 53 53 NNW 5 7 29.85 1011 10 16 0.00 0.00
6:53 am 06:53 Sunny 74 23.3 55 12.8 52 52 NW 5 7 29.85 1011 10 16 0.00 0.00
7:53 am 07:53 Sunny 81 27.2 52 11.1 37 37 NNW 3 6 29.85 1011 10 16 0.00 0.00
8:53 am 08:53 Sunny 88 31.1 47 8.3 24 24 NNW 10 17 29.84 1011 10 16 0.00 0.00
9:53 am 09:53 Sunny 91 32.8 47 8.3 22 22 NNW 12 19 29.83 1010 10 16 0.00 0.00
10:53 am 10:53 Sunny 95 35 48 8.9 20 20 NNW 12 19 29.81 1010 10 16 0.00 0.00
11:53 am 11:53 Sunny 97 36.1 47 8.3 18 18 NW 10 17 29.79 1009 10 16 0.00 0.00
12:53 pm 12:53 Sunny 100 37.8 46 7.8 16 16 N 10 17 29.77 1008 10 16 0.00 0.00
1:53 pm 13:53 Sunny 103 39.4 46 7.8 15 15 undefined N/A 29.75 1007 10 16 0.00 0.00
2:53 pm 14:53 Sunny 105 40.6 45 7.2 13 13 N 7 11 29.72 1007 10 16 0.00 0.00
3:53 pm 15:53 Sunny 104 40 45 7.2 13 13 SSE 5 7 29.70 1006 10 16 0.00 0.00
4:53 pm 16:53 Sunny 105 40.6 44 6.7 13 13 WNW 7 11 29.69 1005 10 16 0.00 0.00
5:53 pm 17:53 Sunny 105 40.6 44 6.7 13 13 SW 6 9 29.67 1005 10 16 0.00 0.00
6:53 pm 18:53 Sunny 103 39.4 58 14.4 23 23 SSE 14 22 29.67 1005 10 16 0.00 0.00
7:53 pm 19:53 Sunny 95 35 57 13.9 28 28 S 18 30 29.68 1005 10 16 0.00 0.00
8:53 pm 20:53 Clear 92 33.3 60 15.6 34 34 S 12 19 29.70 1006 10 16 0.00 0.00
9:53 pm 21:53 Clear 90 32.2 58 14.4 34 34 SE 3 6 29.74 1007 10 16 0.00 0.00
10:53 pm 22:53 Clear 86 30 56 13.3 36 36 VRB 3 6 29.75 1008 10 16 0.00 0.00
11:53 pm 23:53 Clear 84 28.9 56 13.3 38 38 NW 5 7 29.77 1008 10 16 0.00 0.00

Powered by AerisWeather